User: anonymous   Login
Location: Chervonnoye
(48.6000°N, 34.4000°E)
Time: 22:42:42
(UTC+00:00)
Language:

Cosmos 2292 - Orbit

View from above orbital plane
View from above orbital plane
View from above satellite
View from above satellite

Ground track
Ground track

The orbit data is extracted from the following two-line orbital elements,

1 23278U 94061A   21058.47663021  .00000942  00000-0  78113-4 0  9996
2 23278  82.9775 250.7957 0878587 123.8458 244.9495 13.57061528294371
Epoch (UTC): 27 February 2021 11:26:20
Eccentricity: 0.0878587
inclination: 82.9775°
perigee height: 394 km
apogee height: 1698 km
right ascension of ascending node: 250.7957°
argument of perigee: 123.8458°
revolutions per day: 13.57061528
mean anomaly at epoch: 244.9495°
orbit number at epoch: 29437

The dashed part of the orbit path shows where the satellite is in the earth's shadow,  

DLR